Location: Roland
(31.1349°N, 85.4372°W)
Time: 05:00:59
(UTC+00:00)

Courier 1B - Pass Details

Date: 19 April 2021
Orbit: 962 x 1209 km, 28.3° (Epoch: 07 May)

Event Time Altitude Azimuth Distance (km) Brightness Sun altitude
Rises 17:50:19 0° 238° (WSW) 3,742 10.7 70.2°
Reaches altitude 10° 17:53:11 10° 231° (SW) 2,760 10.2 70.1°
Maximum altitude 17:59:24 43° 162° (SSE) 1,338 9.5 69.8°
Drops below altitude 10° 18:05:26 10° 93° (E) 2,687 9.9 69.5°
Sets 18:08:11 0° 86° (E) 3,634 10.4 69.3°
